DW2373 Thessaloniki GR current weather conditions

sailwx.info

Wind from 221 at 1 knots gusting 7

Air temperature 35.6° C
Dewpoint 20.2° C

Last reported at 2015-Jul-31 16:03 UTC.
Time now 2015-Jul-31 17:30 UTC

Location: N 40°31' E 022°58'.
View on Google Maps.

See reports from other nearby stations

  
Tides and Currents Weather Stations Pressure Air Temp Water Temp Dewpoint Dewpoint Depression Visibility Wind Speed Wind Dir Waves Ship Positions
date/time (UTC)wind fromknots sea level pressurealtimeterstation pressurevisibilityair tempwater tempwave heightnotes
2015-Jul-31 16:03 221 1 gusting 7 35.6
2015-Jul-31 15:03 204 4 gusting 7 35.6
2015-Jul-31 14:03 213 2 gusting 8 35.6
2015-Jul-31 13:03 101 4 gusting 7 35.6
2015-Jul-31 12:03 330 1 gusting 6 35.6
2015-Jul-31 11:03 242 2 gusting 6 35.6
2015-Jul-31 10:03 282 3 gusting 6 36.1
2015-Jul-31 09:03 216 2 gusting 6 34.4
2015-Jul-31 08:03 023 1 gusting 12 28.9
2015-Jul-31 07:03 015 1 gusting 6 29.4
2015-Jul-31 06:03 314 2 gusting 8 28.3
2015-Jul-31 05:03 312 2 gusting 8 28.9
2015-Jul-31 04:03 213 0 gusting 6 31.7
2015-Jul-31 03:03 129 31.7
2015-Jul-31 02:03 079 31.7
2015-Jul-31 01:03 093 1 gusting 2 31.7
2015-Jul-31 00:03 089 0 gusting 4 31.7
2015-Jul-30 23:03 093 0 gusting 2 31.7
2015-Jul-30 22:03 123 0 gusting 2 31.7
2015-Jul-30 21:03 328 0 gusting 4 31.7
2015-Jul-30 20:03 185 31.7
2015-Jul-30 19:03 270 37.8
2015-Jul-30 18:03 324 1 gusting 5 37.8
2015-Jul-30 17:03 337 2 gusting 6 37.8
2015-Jul-30 16:03 100 0 gusting 6 37.8
2015-Jul-30 15:03 190 2 gusting 6 37.8
2015-Jul-30 14:03 337 1 gusting 6 37.8
2015-Jul-30 13:03 260 1 gusting 5 37.8
2015-Jul-30 12:03 285 0 gusting 6 37.8
2015-Jul-30 11:03 185 0 gusting 7 35.6
2015-Jul-30 10:03 273 0 gusting 5 35.6
2015-Jul-30 09:03 332 0 gusting 4 34.4
2015-Jul-30 08:03 323 33.9
2015-Jul-30 07:03 135 0 gusting 2 32.8
2015-Jul-30 06:03 258 0 gusting 2 30.6
2015-Jul-30 05:03 206 28.9
2015-Jul-30 04:03 198 27.8
2015-Jul-30 03:03 082 28.3
2015-Jul-30 02:03 090 28.3
2015-Jul-30 01:03 084 28.9
2015-Jul-30 00:03 108 0 gusting 1 28.9
2015-Jul-29 23:03 089 29.4
2015-Jul-29 22:03 092 0 gusting 2 29.4
2015-Jul-29 21:03 083 0 gusting 2 29.4
2015-Jul-29 20:03 070 0 gusting 2 30.6
2015-Jul-29 19:03 310 0 gusting 5 31.1
2015-Jul-29 18:03 327 0 gusting 4 33.3
2015-Jul-29 17:03 098 34.4